[[{"header":{"parameterUnit":"m.s-1","parameterCategory":1,"la1":30.2991,"la2":30.254,"lo1":-89.0895,"lo2":-89.0444,"dx":0.0017,"dy":0.0017,"nx":28,"ny":28,"refTime":"2023-01-09T03:00:00:Z","depth":0,"parameterNumber":2,"parameterNumberName":"U-component_of_WINDS"},"data":[0,0,0,0,0,0,0,0,0,0,0,0,0,0,0,0,0,0,0,0,0,0,0,0,0,0,0,0,0,0,0,0,0,0,0,0,0,0,0,0,0,0,0,0,0,0,0,0,0,0,0,0,0,0,0,0,0,0,1.7694,1.7695,0,1.7771,1.7772,1.7773,1.7791,1.7791,1.779,1.779,1.7863,1.7866,1.7868,0,0,0,0,0,0,0,0,0,0,0,0,0,1.756,1.7563,1.7694,1.7695,1.7696,1.7771,1.7772,1.7773,1.7791,1.7791,1.779,1.779,1.7862,1.7865,1.7868,0,0,0,0,0,0,0,0,0,0,0,0,0,1.7626,1.7564,1.7694,1.7714,1.7717,1.7771,1.7772,1.7774,1.7792,1.7791,1.779,1.7789,1.7861,1.7865,1.7869,1.7906,0,0,1.788,1.7881,0,0,0,0,0,0,0,0,1.7622,1.7631,1.771,1.7713,1.7716,1.7771,1.7752,1.7818,1.7792,1.7763,1.779,1.7789,1.7833,1.7839,1.7855,1.791,1.7913,1.788,1.7882,1.7884,1.7885,0,0,0,0,0,0,0,1.7618,1.7628,1.7725,1.7712,1.7715,1.7719,1.7727,1.7765,1.7801,1.7765,1.7767,1.7776,1.7834,1.7851,1.7857,1.7914,1.788,1.7883,1.7885,1.7887,1.8008,1.8009,0,0,0,0,0,0,1.761,1.7624,1.7722,1.7727,1.7667,1.7722,1.7731,1.7754,1.7801,1.7807,1.7777,1.7777,1.7845,1.7852,1.7859,1.7909,1.7884,1.7887,1.7889,1.8007,1.8008,1.8009,0,0,0,0,0,0,1.7607,1.7619,1.7719,1.7676,1.7689,1.7725,1.775,1.7756,1.7773,1.7809,1.7816,1.7788,1.7845,1.7854,1.7896,1.7912,1.7889,1.7892,1.8006,1.8007,1.8009,1.8007,0,0,0,0,0,0,1.7603,1.7618,1.7632,1.7676,1.7691,1.7755,1.7751,1.7758,1.778,1.7781,1.7821,1.7827,1.7845,1.789,1.7899,1.7916,1.7895,1.8004,1.8006,1.8008,1.8006,1.8009,1.8011,0,0,0,0,0,1.7598,1.7627,1.7633,1.7645,1.7711,1.7756,1.7764,1.7786,1.7781,1.7796,1.7821,1.7826,1.7909,1.7894,1.7905,1.7923,1.8003,1.8006,1.8008,1.8005,1.8008,1.8011,0,0,0,0,0,0,1.758,1.7632,1.764,1.7684,1.7716,1.7759,1.7778,1.7788,1.782,1.7819,1.7843,1.7852,1.7893,1.7912,1.7895,1.7964,1.7956,1.796,1.795,1.7953,1.7956,1.795,1.7898,0,0,0,0,0,1.7582,1.7616,1.7659,1.7693,1.7709,1.7741,1.7761,1.7776,1.7809,1.7822,1.7849,1.7879,1.7913,1.7934,1.7966,1.8009,1.8019,1.8027,1.803,1.8031,1.8035,1.8062,1.8067,1.8017,1.8017,1.8017,0,0,1.7584,1.7617,1.7636,1.769,1.7717,1.7751,1.7752,1.7786,1.7812,1.7826,1.7869,1.789,1.7926,1.797,1.799,1.7987,1.8052,1.8034,1.8036,1.8038,1.8065,1.807,1.8074,1.8019,1.8018,1.8018,0,0,1.7607,1.7635,1.7668,1.7696,1.7737,1.7759,1.7767,1.7811,1.7826,1.787,1.7882,1.7913,1.7969,1.7995,1.8016,1.8054,1.8061,1.8064,1.8076,1.8102,1.8106,1.811,1.8125,1.813,1.8067,1.8067,1.8067,0,1.7604,1.7657,1.7683,1.7719,1.7743,1.7762,1.7796,1.7821,1.787,1.7886,1.7883,1.7957,1.7982,1.8034,1.8044,1.8059,1.807,1.8059,1.8104,1.8108,1.8111,1.8126,1.8132,1.8067,1.8067,1.8067,1.8067,0,1.7653,1.769,1.7712,1.7763,1.7789,1.7824,1.7855,1.7879,1.7893,1.7915,1.7961,1.7993,1.8034,1.8047,1.8059,1.8101,1.8099,1.8099,1.8091,1.8116,1.8131,1.8136,1.8068,1.8068,1.8068,1.8068,0,0,1.7662,1.7732,1.7739,1.7764,1.7814,1.7842,1.7879,1.7922,1.7943,1.7977,1.8009,1.8059,1.8061,1.8085,1.81,1.8123,1.8155,1.8121,1.8123,1.8128,1.8206,1.8206,1.8212,1.816,1.8161,1.8162,1.8204,0,1.7692,1.776,1.7787,1.7842,1.7878,1.7898,1.7931,1.7964,1.7987,1.802,1.8045,1.8081,1.808,1.8096,1.8119,1.8146,1.8171,1.8143,1.819,1.8191,1.8181,1.8219,1.8218,1.8256,1.8209,1.821,1.8211,0,1.7734,1.7773,1.7833,1.7883,1.7898,1.7927,1.7971,1.8002,1.8042,1.8057,1.8087,1.8102,1.8142,1.8133,1.8189,1.8169,1.819,1.8207,1.8209,1.8214,1.8202,1.8226,1.8268,1.8274,1.822,1.8219,1.8219,0,1.7738,1.7805,1.785,1.7871,1.7929,1.7949,1.7974,1.8013,1.8039,1.8077,1.8094,1.8135,1.8157,1.8189,1.8215,1.8206,1.827,1.8262,1.8284,1.8283,1.8295,1.8294,1.8342,1.8308,1.8308,1.8308,1.8308,0,1.7768,1.7804,1.7853,1.7881,1.7923,1.7954,1.7994,1.802,1.8056,1.809,1.8109,1.8139,1.8173,1.8208,1.8228,1.8273,1.8282,1.8296,1.8301,1.8295,1.8293,1.8309,1.8307,1.831,1.8309,1.8309,1.8309,0,1.7777,1.7812,1.7863,1.7916,1.7931,1.7959,1.8004,1.8032,1.8058,1.8101,1.8112,1.8152,1.8195,1.8226,1.8279,1.8294,1.8342,1.8346,1.8329,1.8332,1.8353,1.8351,1.8412,1.8423,1.8381,1.8382,1.8382,0,1.7794,1.7823,1.7881,1.7907,1.7933,1.7972,1.8,1.8033,1.8061,1.8111,1.8133,1.8179,1.8216,1.8284,1.8317,1.836,1.8366,1.8385,1.8372,1.8366,1.8368,1.8366,1.837,1.8386,1.8386,1.8387,1.8387,0,1.7821,1.7838,1.7878,1.7926,1.796,1.7998,1.8036,1.8056,1.8095,1.8126,1.8172,1.8202,1.826,1.8305,1.8351,1.8376,1.8389,1.8391,1.8399,1.8392,1.8382,1.8389,1.8336,1.8389,1.8389,1.8389,1.8388,1.8388,1.7836,1.7864,1.7911,1.7956,1.799,1.8026,1.8057,1.8089,1.8128,1.818,1.8197,1.8245,1.8288,1.8352,1.8378,1.8417,1.8415,1.8425,1.8428,1.843,1.8431,1.8376,1.8425,1.8425,1.8425,1.8425,1.8425,0,1.7865,1.7898,1.7939,1.7995,1.8031,1.8043,1.8087,1.8116,1.816,1.8199,1.8238,1.8293,1.8338,1.8376,1.8423,1.8446,1.8453,1.8457,1.8456,1.8462,1.8429,1.8418,1.8451,1.8451,1.8451,1.8451,1.8451,1.8451,1.7884,1.7934,1.7958,1.8025,1.8057,1.8107,1.8131,1.8166,1.8198,1.8259,1.8298,1.8325,1.8365,1.8415,1.8457,1.8468,1.8484,1.8487,1.8499,1.8467,1.8464,1.8461,1.8451,1.8491,1.8491,1.8529,1.853,1.853]},{"header":{"parameterUnit":"m.s-1","parameterCategory":1,"la1":30.2991,"la2":30.254,"lo1":-89.0895,"lo2":-89.0444,"dx":0.0017,"dy":0.0017,"nx":28,"ny":28,"refTime":"2023-01-09T03:00:00:Z","depth":0,"parameterNumber":3,"parameterNumberName":"V-component_of_WINDS"},"data":[0,0,0,0,0,0,0,0,0,0,0,0,0,0,0,0,0,0,0,0,0,0,0,0,0,0,0,0,0,0,0,0,0,0,0,0,0,0,0,0,0,0,0,0,0,0,0,0,0,0,0,0,0,0,0,0,0,0,0.8763,0.8765,0,0.8892,0.8894,0.8895,0.9009,0.901,0.9012,0.9013,0.9145,0.9147,0.9149,0,0,0,0,0,0,0,0,0,0,0,0,0,0.8614,0.8617,0.8763,0.8765,0.8766,0.8892,0.8894,0.8896,0.9009,0.901,0.9012,0.9013,0.9144,0.9147,0.9149,0,0,0,0,0,0,0,0,0,0,0,0,0,0.8705,0.8617,0.8763,0.8838,0.8846,0.8892,0.8894,0.8896,0.9008,0.901,0.9012,0.9014,0.9143,0.9146,0.915,0.9132,0,0,0.916,0.9162,0,0,0,0,0,0,0,0,0.8699,0.871,0.8825,0.8833,0.8842,0.8937,0.889,0.8975,0.9008,0.8947,0.9013,0.9015,0.9074,0.9083,0.9103,0.9138,0.9144,0.9161,0.9163,0.9164,0.9165,0,0,0,0,0,0,0,0.8693,0.8705,0.8814,0.8827,0.8837,0.8865,0.888,0.8907,0.8998,0.8952,0.8961,0.8974,0.9079,0.9099,0.9107,0.9146,0.9161,0.9164,0.9166,0.9167,0.9173,0.9171,0,0,0,0,0,0,0.8675,0.8699,0.881,0.8818,0.8774,0.8866,0.8883,0.8904,0.8998,0.9014,0.8973,0.8979,0.9093,0.9103,0.9112,0.9098,0.9164,0.9167,0.9169,0.9175,0.9172,0.917,0,0,0,0,0,0,0.8672,0.8684,0.8805,0.8761,0.8779,0.8867,0.889,0.8906,0.8927,0.9013,0.903,0.8977,0.9095,0.9107,0.9126,0.9104,0.9169,0.9172,0.9177,0.9174,0.9171,0.9068,0,0,0,0,0,0,0.8667,0.8682,0.8676,0.876,0.8781,0.8817,0.8888,0.8907,0.8932,0.8942,0.9022,0.9037,0.9097,0.912,0.913,0.911,0.9175,0.9179,0.9176,0.9172,0.9074,0.9062,0.9052,0,0,0,0,0,0.8661,0.8642,0.8675,0.8688,0.8775,0.8815,0.8827,0.8897,0.893,0.8925,0.898,0.9034,0.9105,0.9121,0.9133,0.9114,0.9181,0.9177,0.9173,0.9079,0.9065,0.9052,0,0,0,0,0,0,0.8553,0.8654,0.8692,0.87,0.8748,0.8834,0.883,0.8879,0.8919,0.8927,0.9011,0.9028,0.9038,0.9078,0.9095,0.9101,0.915,0.9148,0.9075,0.9062,0.9051,0.9042,0.9178,0,0,0,0,0,0.853,0.8554,0.8641,0.8639,0.8661,0.8741,0.8761,0.8811,0.8864,0.8885,0.8942,0.8992,0.9026,0.9046,0.9082,0.908,0.91,0.9073,0.9062,0.9052,0.9049,0.9052,0.9042,0.9156,0.9156,0.9156,0,0,0.8482,0.8541,0.8551,0.8619,0.8662,0.8685,0.8758,0.8779,0.8797,0.8889,0.891,0.8954,0.9015,0.9024,0.903,0.9057,0.9022,0.9047,0.9038,0.9041,0.9047,0.9036,0.9026,0.9153,0.9154,0.9154,0,0,0.8408,0.8454,0.8458,0.85,0.8565,0.8618,0.8618,0.8697,0.873,0.8753,0.8822,0.8845,0.8901,0.8942,0.897,0.8911,0.8962,0.892,0.8863,0.8865,0.8856,0.8848,0.8828,0.8819,0.8917,0.8916,0.8916,0,0.8341,0.8379,0.8454,0.8471,0.8499,0.8583,0.8587,0.8624,0.8697,0.8714,0.8743,0.8815,0.8862,0.8882,0.8868,0.8887,0.8891,0.8912,0.8851,0.8844,0.8838,0.882,0.8812,0.8911,0.8912,0.8912,0.8913,0,0.8294,0.8319,0.8314,0.8383,0.841,0.8421,0.8497,0.8516,0.8563,0.8613,0.8635,0.8694,0.8744,0.8752,0.8798,0.8778,0.8793,0.8835,0.8886,0.882,0.8805,0.8798,0.8903,0.8905,0.8907,0.8908,0,0,0.8156,0.8265,0.8262,0.8294,0.8372,0.8393,0.8407,0.8456,0.847,0.8517,0.8532,0.8577,0.8617,0.8648,0.87,0.8701,0.8651,0.8743,0.8746,0.8725,0.8634,0.8603,0.8593,0.8685,0.8684,0.8684,0.863,0,0.8095,0.8126,0.8194,0.8204,0.8228,0.8308,0.8321,0.8369,0.8416,0.8444,0.8496,0.8527,0.8576,0.8596,0.8601,0.8656,0.8634,0.8661,0.8701,0.8701,0.8683,0.8585,0.8552,0.8498,0.8624,0.8623,0.8622,0,0.8029,0.8071,0.8083,0.8159,0.8172,0.8182,0.8232,0.8258,0.8315,0.8349,0.8384,0.844,0.846,0.8506,0.8535,0.8552,0.8572,0.8601,0.8601,0.8608,0.8658,0.859,0.8482,0.8474,0.8613,0.8614,0.8614,0,0.7927,0.7987,0.8003,0.8028,0.8117,0.8122,0.8159,0.8219,0.8243,0.8287,0.8304,0.8349,0.8373,0.8407,0.8474,0.8501,0.8496,0.8548,0.8525,0.8524,0.8521,0.8521,0.8416,0.8532,0.8533,0.8533,0.8533,0,0.7853,0.7857,0.7959,0.7968,0.7976,0.8053,0.8058,0.8103,0.8155,0.8175,0.8246,0.8263,0.835,0.8378,0.843,0.8447,0.8457,0.8486,0.85,0.848,0.8476,0.8494,0.85,0.8531,0.8531,0.8531,0.8532,0,0.7741,0.7809,0.7831,0.7914,0.7935,0.7936,0.8007,0.802,0.8071,0.8095,0.8105,0.8185,0.8221,0.8291,0.8346,0.8382,0.8386,0.8411,0.8367,0.8376,0.835,0.8352,0.8254,0.8246,0.8366,0.8365,0.8364,0,0.769,0.7695,0.7778,0.7796,0.7831,0.7859,0.7885,0.7961,0.7985,0.805,0.8055,0.8096,0.8133,0.8187,0.825,0.8293,0.8319,0.8282,0.8326,0.8306,0.832,0.8319,0.832,0.8272,0.8271,0.8269,0.8268,0,0.7591,0.7624,0.7659,0.7704,0.7733,0.7773,0.7816,0.7827,0.7914,0.7937,0.7974,0.8003,0.8059,0.81,0.8152,0.8191,0.8244,0.8254,0.8251,0.8231,0.8206,0.822,0.8341,0.8256,0.8257,0.8258,0.8259,0.8259,0.7509,0.7517,0.7577,0.7613,0.7654,0.7693,0.7708,0.7761,0.7794,0.7846,0.7889,0.7922,0.798,0.8055,0.8091,0.8119,0.8144,0.814,0.8139,0.8137,0.8129,0.82,0.8128,0.8129,0.8129,0.813,0.813,0,0.7414,0.7456,0.7488,0.7547,0.7575,0.7622,0.7673,0.7694,0.7722,0.7771,0.7807,0.785,0.7889,0.7955,0.8,0.801,0.8035,0.8019,0.802,0.8028,0.8103,0.8102,0.7998,0.7998,0.7998,0.7998,0.7998,0.7998,0.7368,0.7386,0.7426,0.7464,0.7507,0.754,0.7565,0.7602,0.7642,0.7686,0.7719,0.7762,0.7819,0.7868,0.7907,0.7925,0.7939,0.7915,0.7941,0.801,0.8023,0.8034,0.8033,0.7917,0.7917,0.7864,0.7863,0.7863]}]]